Zurück zum Katalog

STARLINK-5975

AktivKommunikationVLEO
NORAD 57372·PAYLOAD·🇺🇸 United States

Gestartet Jul 16, 2023 von Cape Canaveral Space Force Station

Loading…

Nächste Überflüge (nächste 24 Stunden)

TLE

AktuellSource: CelesTrak SupGP

Epoche: Sep 14, 2026, 20:53 UTC

1 57372C 23099AW  26257.87062500  .00022140  00000+0  80210-3 0  2576
2 57372  43.0022 253.5720 0000994 282.9456 253.1118 15.27560550    17

Verfolge STARLINK-5975 in Echtzeit mit AllMySat

Download on the App Store